Location: Newark
(47.5347°N, 5.5339°E)
Time: 04:23:28
(UTC+00:00)

ISS - Pass Details

Date: 23 September 2019
Orbit: 411 x 421 km, 51.6° (Epoch: 19 October)

Event Time Altitude Azimuth Distance (km) Brightness Sun altitude
Rises 20:05:56 0° 270° (W) 2,342 1.0 -25.3°
Reaches altitude 10° 20:08:06 10° 277° (W) 1,481 -0.1 -25.6°
Enters shadow 20:09:59 28° 298° (WNW) 811 -1.7 -25.9°
